Tracking 27423 objects as of 8-Jun-2023
HD Live streaming from Space Station
objects crossing your sky now

STARLINK-1304

Track STARLINK-1304 now!
10-day predictions
STARLINK-1304 is classified as:


NORAD ID: 45376
Int'l Code: 2020-019S
Perigee: 553.6 km
Apogee: 555.1 km
Inclination: 53.1 °
Period: 95.6 minutes
Semi major axis: 6925 km
RCS: Unknown
Launch date: March 18, 2020
Source: United States (US)
Launch site: AIR FORCE EASTERN TEST RANGE (AFETR)
Your satellite tracking list
Your tracking list is empty




NASA's NSSDC Master Catalog

Two Line Element Set (TLE):
1 45376U 20019S   23159.57326472  .00007964  00000-0  55285-3 0  9997
2 45376  53.0545 358.7622 0001078  69.6936 290.4168 15.06404085178231
Source of the keplerian elements: AFSPC